Location: Albuquerque Trailhead
(34.7934°N, 106.3736°W)
Time: 12:55:18
(UTC+00:00)

Cosmos 1743 Rocket - Pass Details

Date: 20 June 2021
Orbit: 604 x 633 km, 82.6° (Epoch: 30 July)

Event Time Altitude Azimuth Distance (km) Brightness Sun altitude
Exits shadow 10:34:03 14° 188° (S) 1,709 5.4 -13.9°
Maximum altitude 10:37:46 85° 274° (W) 625 3.5 -13.3°
Drops below altitude 10° 10:42:12 10° 5° (N) 1,997 6.9 -12.6°
Sets 10:44:27 0° 6° (N) 2,912 7.8 -12.3°
